KE5JJC Weather Reports


time (UTC)temp
C
wind
direction
speed
KPH
gust
KPH
rain 1hr
cm
rain 24hr
cm
rain mn
cm
humidity
%
barometer
mb
20220124161523 -8 15 0.0 0.0 0.00 0.00 0.00 94 1029.2
20220124160117 -8 177 0.0 0.0 0.00 0.00 0.00 94 1028.8
20220124154613 -8 160 0.0 0.0 0.00 0.00 0.00 94 1028.7
20220124153059 -8 160 0.0 0.0 0.00 0.00 0.00 94 1028.1
20220124151517 -8 143 0.0 0.0 0.00 0.00 0.00 94 1028.4
20220124150027 -8 143 0.0 0.0 0.00 0.00 0.00 94 1028.4
20220124144546 -8 143 0.0 0.0 0.00 0.00 0.00 94 1028.6
20220124143055 -9 144 0.0 0.0 0.00 0.00 0.00 94 1028.4
20220124141536 -9 145 0.0 0.0 0.00 0.00 0.00 94 1028.4
20220124140212 -9 145 0.0 0.0 0.00 0.00 0.00 94 1028.3
20220124134650 -10 145 0.0 0.0 0.00 0.00 0.00 93 1028.0
20220124133146 -10 145 0.0 0.0 0.00 0.00 0.00 93 1028.3
20220124131628 -10 145 0.0 0.0 0.00 0.00 0.00 93 1028.3
20220124130044 -10 145 0.0 0.0 0.00 0.00 0.00 93 1028.5
20220124124544 -9 145 0.0 0.0 0.00 0.00 0.00 93 1029.0
20220124123204 -9 145 0.0 0.0 0.00 0.00 0.00 93 1028.9
20220124123001 -9 145 0.0 0.0 0.00 0.00 0.00 93 1028.9
20220124121535 -9 145 0.0 0.0 0.00 0.00 0.00 93 1028.8
20220124120028 -8 144 0.0 0.0 0.00 0.00 0.00 94 1029.3
20220124114607 -8 144 0.0 0.0 0.00 0.00 0.00 94 1029.4
20220124113005 -8 144 0.0 0.0 0.00 0.00 0.00 94 1029.7
20220124111740 -8 144 0.0 0.0 0.00 0.00 0.00 94 1029.4
20220124110106 -8 148 0.0 0.0 0.00 0.00 0.00 94 1029.5
20220124104604 -8 148 0.0 0.0 0.00 0.00 0.00 94 1029.6
20220124103117 -8 148 0.0 0.0 0.00 0.00 0.00 94 1029.8
20220124101509 -8 148 0.0 0.0 0.00 0.00 0.00 94 1029.8
20220124100038 -8 148 0.0 0.0 0.00 0.00 0.00 94 1029.8
20220124094532 -7 147 0.0 0.0 0.00 0.00 0.00 94 1029.9
20220124093057 -7 147 0.0 0.0 0.00 0.00 0.00 94 1030.0
20220124091547 -7 146 0.0 0.0 0.00 0.00 0.00 94 1030.3
20220124090015 -7 146 0.0 0.0 0.00 0.00 0.00 94 1030.4
20220124084600 -7 146 0.0 0.0 0.00 0.00 0.00 94 1030.6
20220124083117 -7 146 0.0 0.0 0.00 0.00 0.00 94 1030.7
20220124081547 -7 146 0.0 0.0 0.00 0.00 0.00 94 1031.1
20220124080051 -7 146 0.0 0.0 0.00 0.00 0.00 94 1031.0
20220124074619 -7 146 0.0 0.0 0.00 0.00 0.00 94 1031.0
20220124073030 -7 146 0.0 0.0 0.00 0.00 0.00 94 1031.1
20220124071511 -7 146 0.0 0.0 0.00 0.00 0.00 94 1031.1
20220124070155 -7 146 0.0 0.0 0.00 0.00 0.00 94 1031.1
20220124064622 -6 146 0.0 0.0 0.00 0.00 0.00 95 1031.2
20220124063202 -7 146 0.0 0.0 0.00 0.00 0.00 94 1031.1
20220124061545 -6 146 0.0 0.0 0.00 0.00 0.00 95 1031.1
20220124060145 -6 146 0.0 0.0 0.00 0.00 0.00 95 1031.2
20220124054630 -6 146 0.0 0.0 0.00 0.00 0.00 94 1031.4
20220124053113 -6 146 0.0 0.0 0.00 0.00 0.00 95 1031.3
20220124051556 -6 147 0.0 0.0 0.00 0.00 0.00 95 1031.3
20220124050105 -6 147 0.0 0.0 0.00 0.00 0.00 95 1031.5
20220124044644 -6 147 0.0 0.0 0.00 0.00 0.00 95 1031.5
20220124043134 -6 144 0.0 0.0 0.00 0.00 0.00 95 1031.6
20220124043017 -6 144 0.0 0.0 0.00 0.00 0.00 95 1031.6
20220124041526 -6 144 0.0 0.0 0.00 0.00 0.00 95 1031.5
20220124040024 -6 196 0.0 0.0 0.00 0.00 0.00 95 1031.6
20220124034523 -6 196 0.0 0.0 0.00 0.00 0.00 95 1031.6
20220124033118 -6 197 0.0 0.0 0.00 0.00 0.00 95 1031.6
20220124031507 -6 197 0.0 0.0 0.00 0.00 0.00 95 1031.5
20220124030116 -6 197 0.0 0.0 0.00 0.00 0.00 95 1031.6
20220124024610 -6 197 0.0 0.0 0.00 0.00 0.00 95 1031.7
20220124023116 -6 197 0.0 0.0 0.00 0.00 0.00 95 1031.9
20220124021547 -6 197 0.0 0.0 0.00 0.00 0.00 95 1031.9
20220124020043 -5 197 0.0 0.0 0.00 0.00 0.00 95 1032.0
20220124014541 -5 197 0.0 0.0 0.00 0.00 0.00 95 1031.9
20220124013034 -5 197 0.0 0.0 0.00 0.00 0.00 95 1032.2
20220124011607 -5 197 0.0 0.0 0.00 0.00 0.00 95 1032.2
20220124010110 -5 197 0.0 0.0 0.00 0.00 0.00 95 1032.3
20220124004610 -5 197 0.0 0.0 0.00 0.00 0.00 95 1032.1
20220124003225 -4 134 0.0 0.0 0.00 0.00 0.00 95 1032.3
20220124001628 -4 134 0.0 0.0 0.00 0.00 0.00 95 1032.4
20220124000228 -4 106 0.0 0.0 0.00 0.00 0.00 95 1032.3
20220123234541 -4 106 0.0 0.0 0.00 0.00 0.00 95 1032.1
20220123233053 -4 144 0.0 0.0 0.00 0.00 0.00 95 1032.2
20220123231524 -4 144 0.0 0.0 0.00 0.00 0.00 95 1032.2
20220123230136 -4 143 0.0 0.0 0.00 0.00 0.00 95 1032.1
20220123224554 -3 144 0.0 0.0 0.00 0.03 0.00 95 1032.1
20220123223022 -3 144 0.0 0.0 0.00 0.03 0.00 95 1031.9
20220123221519 -3 112 0.0 0.0 0.00 0.03 0.00 95 1031.9
20220123220018 -3 112 0.0 0.0 0.00 0.03 0.00 95 1031.9
20220123214606 -3 102 0.0 0.0 0.00 0.03 0.00 95 1032.0
20220123213039 -3 102 0.0 0.0 0.00 0.03 0.00 95 1031.9
20220123211610 -3 102 0.0 0.0 0.00 0.03 0.00 95 1031.9
20220123210043 -3 102 0.0 0.0 0.00 0.03 0.00 95 1032.0
20220123204534 -4 68 0.0 0.0 0.00 0.03 0.00 95 1032.2
20220123203004 -4 98 0.0 0.0 0.00 0.03 0.00 95 1032.4
20220123201504 -4 99 0.0 0.0 0.00 0.03 0.00 95 1032.6
20220123200038 -4 98 0.0 0.0 0.00 0.03 0.00 95 1032.5
20220123194535 -4 99 0.0 0.0 0.00 0.03 0.00 95 1032.7
20220123193014 -4 39 0.0 0.0 0.00 0.03 0.00 95 1032.8
20220123191545 -4 39 0.0 0.0 0.00 0.03 0.00 95 1033.1
20220123190010 -4 38 0.0 0.0 0.00 0.03 0.00 95 1033.3
20220123184615 -5 38 0.0 0.0 0.00 0.03 0.00 95 1033.5
20220123183128 -5 38 0.0 0.0 0.00 0.03 0.00 95 1033.5
20220123181618 -5 38 0.0 0.0 0.00 0.03 0.00 95 1033.5
20220123180132 -5 39 0.0 0.0 0.00 0.03 0.00 95 1033.5
20220123174556 -5 148 0.0 0.0 0.00 0.03 0.00 95 1033.6
20220123173047 -5 148 0.0 0.0 0.00 0.03 0.00 95 1033.9
20220123171521 -5 149 0.0 0.0 0.00 0.03 0.00 95 1033.8
20220123170347 -5 149 0.0 0.0 0.00 0.03 0.00 95 1033.9
20220123164655 -6 148 0.0 0.0 0.00 0.03 0.00 95 1033.8
20220123163143 -6 148 0.0 0.0 0.00 0.03 0.00 95 1033.9